GEFSMA_500_meanwind_264.txt.gz
Wind_Speed
4 4 4 4 3 3 1 1 1 0 1 2 3 4 4 5 5 5 6 6 7 7 7 7 8 8 8 8 9 9 10 11 11 12 13 14 13 13 13 13 13 13 13
4 4 4 4 3 2 2 1 1 1 2 3 4 4 6 6 7 6 6 7 7 8 9 9 8 9 9 10 10 12 12 12 13 13 12 13 13 14 14 15 15 14 14
4 4 4 4 3 3 2 2 2 2 3 4 5 5 6 7 7 7 7 8 8 9 10 10 10 10 11 11 12 12 13 13 13 13 13 13 13 13 14 14 14 14 14
5 5 4 4 3 4 3 3 3 4 4 4 5 6 7 7 8 9 8 9 10 10 11 11 11 11 12 12 13 13 14 13 13 14 14 14 13 13 13 13 13 14 15
6 5 4 4 4 4 4 4 4 5 5 5 5 6 6 7 7 8 9 10 10 10 11 12 12 12 12 12 13 13 14 13 13 14 14 14 14 14 14 14 14 13 14
7 6 5 4 4 4 4 5 5 6 5 5 6 6 7 7 8 8 9 10 10 10 12 13 13 13 13 13 13 14 14 14 14 15 14 14 15 15 15 15 15 15 14
8 7 6 5 5 5 5 5 5 6 6 6 6 6 7 8 9 9 10 11 10 11 12 12 13 14 13 13 14 14 15 15 16 15 14 14 14 14 15 15 16 15 15
9 8 7 6 6 6 6 7 7 7 8 8 8 8 8 7 8 9 10 11 11 11 12 14 14 13 14 14 14 15 15 15 15 15 15 15 15 15 15 16 16 16 16
10 9 8 8 8 8 8 9 8 8 8 8 8 8 9 8 9 9 10 11 12 13 13 13 14 14 14 15 15 16 16 15 15 15 15 15 15 15 16 16 16 17 16
10 10 10 9 9 9 9 9 10 10 10 10 9 9 10 10 10 10 11 12 12 13 13 14 14 15 15 15 16 17 17 17 17 16 16 16 16 16 16 16 16 16 17
10 10 10 10 10 10 10 10 10 11 11 11 11 11 11 12 12 12 12 13 13 14 14 14 15 15 16 17 17 17 17 17 17 17 17 16 16 16 16 16 16 17 17
9 10 10 10 11 11 11 11 12 12 12 11 12 12 12 13 12 12 13 13 14 15 14 15 16 17 17 17 17 17 17 17 17 17 17 17 17 16 16 16 17 18 18
10 10 10 11 11 12 12 12 12 12 12 12 13 13 13 13 13 14 14 14 15 15 15 15 16 17 17 17 17 17 17 17 17 17 17 17 17 17 17 17 17 18 18
10 10 11 11 12 12 12 12 12 12 13 13 13 14 14 13 13 14 14 15 15 15 16 16 17 16 16 17 17 17 17 17 17 17 17 18 18 18 18 18 19 19 19
11 10 11 12 12 13 13 13 13 13 13 13 14 14 14 13 13 14 15 15 15 15 16 17 17 17 17 17 16 17 17 17 17 17 17 18 18 18 18 18 19 19 19
11 11 12 12 13 14 14 13 13 13 14 14 14 14 14 14 14 15 15 16 16 16 16 16 17 17 17 17 17 17 17 16 17 18 18 18 18 18 18 17 18 18 18
11 12 13 14 14 14 14 14 14 14 14 14 15 15 15 15 15 16 16 16 16 17 17 17 17 17 18 18 17 18 18 18 17 17 17 17 17 17 17 17 18 18 18
13 14 14 15 15 15 15 15 14 15 15 16 16 16 17 17 17 17 18 18 18 18 18 18 18 18 18 18 19 19 19 19 18 17 17 17 17 17 17 17 17 18 18
15 15 16 16 16 16 16 16 16 16 16 17 17 18 18 18 18 18 19 19 19 18 18 18 18 19 19 19 19 19 19 19 18 18 17 17 17 17 17 17 17 17 17
17 17 17 17 17 17 17 17 17 17 18 18 18 18 19 19 19 19 20 20 20 20 19 19 19 20 19 19 20 20 19 19 18 18 17 17 17 18 18 18 17 18 18
18 18 18 19 19 19 19 19 19 20 19 20 20 20 20 20 21 21 21 21 21 21 21 21 21 20 20 20 20 21 20 20 20 18 18 18 18 18 18 18 19 19 19
20 20 20 20 20 20 21 21 21 21 21 21 21 21 22 22 23 23 23 23 23 23 22 22 21 22 22 22 22 22 21 21 20 20 20 20 19 19 19 19 19 19 20
22 21 21 21 21 22 22 23 23 23 22 23 23 24 24 24 24 24 24 24 24 24 24 24 23 23 23 23 23 22 23 23 22 21 21 21 21 20 20 20 20 20 21
23 23 23 23 23 23 24 24 25 25 25 25 25 26 26 26 26 25 25 25 25 25 25 25 24 24 24 24 24 24 24 24 23 23 22 22 21 21 21 21 20 20 20
25 25 25 25 25 25 26 26 26 27 27 26 27 27 27 27 27 27 27 26 26 26 27 27 27 26 26 25 25 25 26 25 25 24 23 22 21 21 21 21 21 20 20
27 27 27 27 27 27 27 27 28 28 28 28 28 28 28 28 28 28 28 28 28 27 27 27 27 27 27 27 26 26 27 26 25 24 24 24 23 22 22 22 22 22 22

GEFSMA_500_meanwind_270.txt.gz
Wind_Speed
4 4 3 3 3 2 2 1 1 1 2 2 3 3 3 3 3 4 4 5 5 5 6 6 6 7 8 8 9 9 10 11 11 11 11 12 12 12 13 14 14 14 14
3 3 2 2 2 2 2 3 2 2 2 2 3 3 3 4 4 5 5 5 6 7 7 7 8 8 9 9 10 11 11 12 12 13 13 14 14 14 14 14 14 14 15
4 3 3 2 2 2 2 2 2 2 2 2 3 3 3 4 5 6 6 6 7 7 8 8 9 9 9 10 11 11 12 12 13 14 14 15 15 15 15 15 14 15 15
5 4 4 3 3 2 3 3 3 3 3 3 3 3 4 5 6 6 7 7 7 7 8 9 9 9 10 11 11 12 13 13 14 14 14 14 15 15 15 15 15 15 15
6 5 4 3 3 3 4 3 4 4 4 4 4 4 5 5 6 6 6 7 6 7 8 9 10 10 10 11 12 12 13 14 14 14 14 14 15 15 16 16 16 15 16
6 5 5 5 4 4 4 3 4 4 5 5 5 5 6 5 6 6 6 7 7 8 8 9 11 11 11 11 12 12 13 14 14 14 14 14 15 15 16 16 17 17 16
7 7 6 5 6 5 5 4 4 5 5 5 6 6 6 6 7 7 7 8 8 9 9 9 10 10 11 12 12 12 13 13 14 14 14 14 15 16 16 16 17 17 17
7 7 6 6 7 6 6 5 5 5 5 5 6 6 7 7 7 7 8 9 9 9 9 9 9 10 11 11 12 12 12 12 13 14 14 15 16 16 16 16 17 17 17
7 6 6 7 7 7 7 7 6 6 6 6 6 7 7 7 8 9 9 9 10 10 10 10 10 10 11 11 11 12 13 13 14 13 14 15 16 16 16 17 18 18 17
6 6 7 7 8 8 8 8 7 7 7 7 7 8 7 8 9 9 9 10 10 11 11 10 11 10 10 11 12 12 13 13 13 13 14 14 15 16 17 17 17 18 18
6 7 7 8 8 8 9 8 8 8 8 8 9 8 9 10 10 10 10 10 11 11 11 11 11 11 11 11 12 12 13 13 14 14 14 15 15 15 15 16 17 18 18
7 7 7 8 9 9 9 9 8 9 9 9 10 9 9 10 10 10 10 10 10 10 11 11 11 11 12 12 13 14 14 14 15 15 16 16 16 16 15 16 16 17 18
7 7 8 8 9 9 9 9 9 9 9 10 10 10 10 10 10 10 11 12 12 12 12 12 12 12 12 13 14 13 13 14 15 16 16 16 17 17 17 16 17 17 17
7 7 8 8 9 9 9 9 9 9 9 10 10 10 10 11 11 12 12 13 13 14 14 13 13 13 13 13 14 15 15 15 15 16 16 17 17 17 17 17 17 18 18
7 7 8 8 9 9 10 10 10 9 10 10 10 11 11 11 13 13 13 13 14 14 14 14 14 13 14 14 15 15 16 16 16 16 17 17 17 17 17 17 18 18 19
9 9 9 9 10 10 11 11 10 10 10 11 11 12 12 12 13 13 13 14 15 14 13 14 14 14 14 15 15 16 17 17 17 17 17 17 17 17 17 17 18 19 19
10 10 10 10 11 12 12 12 11 12 12 12 13 13 13 14 14 14 15 15 15 15 14 14 15 15 15 16 16 17 17 17 17 17 17 17 17 17 17 17 17 17 18
11 11 11 12 13 13 13 13 13 13 13 13 13 14 14 15 15 16 16 16 16 15 15 16 17 17 17 17 17 17 18 18 17 17 17 17 17 18 18 17 17 18 18
12 12 13 14 14 13 13 14 14 15 14 14 14 14 15 15 16 17 17 17 17 17 17 18 18 18 18 18 18 19 19 19 18 18 17 17 17 18 18 18 18 17 17
13 14 14 15 15 15 15 16 16 16 16 16 15 16 16 16 17 17 18 18 18 19 19 19 19 19 20 20 20 20 20 19 19 18 18 18 18 18 18 18 18 17 17
15 15 16 16 16 16 17 17 17 17 18 17 17 17 17 18 19 19 19 20 20 20 21 21 21 21 21 21 21 21 21 21 20 19 19 19 19 19 19 19 19 18 18
16 17 17 17 18 18 19 19 19 20 20 19 18 19 19 19 21 21 22 22 22 23 22 23 23 22 22 22 22 22 22 22 21 21 21 20 20 20 20 19 19 19 19
18 18 18 19 19 20 20 20 21 21 21 20 21 21 21 21 22 23 23 24 24 25 24 24 24 23 24 23 23 23 23 23 22 22 22 22 22 21 20 20 20 20 20
20 20 20 21 21 21 21 21 21 21 21 21 22 22 23 23 23 24 24 25 25 25 25 25 24 24 24 25 25 25 24 24 24 23 22 22 22 22 22 21 21 21 21
22 22 22 23 23 23 22 22 22 22 23 23 24 24 25 25 25 26 25 26 26 26 26 26 25 24 25 26 26 26 26 25 25 25 24 24 23 23 23 23 23 22 23
23 24 24 24 24 24 24 24 24 24 25 25 25 26 26 27 27 27 27 27 26 26 26 26 26 26 27 27 27 27 27 27 26 25 25 25 25 25 25 25 25 24 24

GEFSMA_500_meanwind_276.txt.gz
Wind_Speed
5 4 4 4 4 3 3 3 2 2 2 3 3 3 3 3 3 3 4 5 5 6 7 7 8 8 9 10 11 11 12 12 12 13 12 13 13 13 13 13 13 13 14
5 4 4 4 4 4 4 4 4 3 2 3 3 3 4 4 4 5 5 6 6 7 7 8 8 9 10 11 12 12 13 13 14 14 14 14 14 15 15 14 14 14 14
6 5 4 3 3 3 3 4 4 4 3 2 3 3 4 5 5 6 6 6 7 8 8 9 10 10 11 11 12 13 13 14 14 14 15 15 15 15 16 16 16 15 16
6 5 4 4 3 3 3 4 4 4 4 4 4 4 5 6 6 6 6 7 8 9 9 9 10 11 11 11 12 13 13 14 14 14 15 15 15 15 16 16 16 16 16
6 5 4 4 4 4 4 4 5 5 4 5 5 5 6 6 7 7 7 7 8 9 10 10 11 11 12 12 12 13 13 13 14 15 15 16 16 15 16 17 17 18 18
6 5 4 4 5 5 4 4 5 5 4 5 5 6 6 7 7 8 8 8 8 9 10 11 11 12 12 12 13 13 14 14 14 14 15 16 15 15 16 18 18 19 19
7 6 6 5 5 5 5 5 5 5 5 5 6 6 7 7 8 8 8 9 9 10 10 11 12 12 12 13 13 13 13 13 14 14 14 14 15 15 16 17 18 18 19
6 6 6 5 5 5 5 5 5 5 6 6 6 7 7 9 9 9 9 10 10 11 11 11 11 12 13 13 13 12 13 13 14 14 14 14 14 14 14 15 16 17 17
5 5 5 6 6 6 6 6 6 6 7 7 7 8 8 8 9 10 11 10 11 11 12 12 12 12 13 13 14 13 13 14 14 14 15 15 15 15 14 15 16 17 17
6 6 6 7 7 7 7 7 7 7 7 8 8 8 9 9 9 9 10 11 11 12 12 12 12 13 13 13 14 14 14 14 14 15 15 15 15 15 16 16 16 16 17
6 7 7 7 8 8 8 8 7 8 8 8 9 9 9 9 9 9 10 11 12 12 13 13 13 14 14 14 14 15 15 15 15 15 15 15 16 16 16 16 17 17 17
7 7 8 8 8 8 9 9 9 9 10 10 9 9 10 10 10 10 10 11 12 13 13 14 14 14 14 15 15 15 15 15 15 15 15 16 16 16 17 17 17 17 17
8 8 8 8 9 9 10 10 10 10 10 10 11 11 11 11 11 12 12 12 13 14 14 14 14 15 15 15 15 15 16 16 15 15 15 16 17 17 17 17 17 17 18
9 8 8 9 9 10 10 10 10 11 11 12 12 12 12 12 12 13 14 14 14 15 15 15 15 15 16 16 15 16 16 16 16 16 16 16 17 17 17 17 18 18 18
10 9 10 10 10 10 10 10 11 12 12 12 13 13 13 14 14 14 15 15 15 16 16 16 16 16 16 16 16 16 16 16 17 17 17 17 17 17 17 17 18 18 19
10 11 11 11 11 11 11 12 12 12 13 13 14 14 15 15 15 15 16 16 17 17 17 17 16 16 16 15 16 17 17 18 18 18 18 19 18 18 18 19 18 19 19
11 12 12 12 13 13 12 13 13 13 14 15 15 15 15 16 16 16 17 17 17 18 18 18 17 17 17 17 17 18 18 19 19 19 19 19 19 19 19 19 19 19 20
12 13 13 13 14 14 14 14 15 15 15 16 15 15 16 16 16 17 18 18 19 19 19 19 19 19 19 19 18 18 19 20 20 20 20 20 20 19 20 20 20 21 21
13 14 14 14 14 15 15 15 16 16 17 17 17 16 16 17 17 18 19 20 20 20 20 20 20 20 20 20 20 20 21 21 21 21 21 21 21 21 21 21 22 22 22
14 15 15 15 15 16 16 17 17 18 18 19 18 18 18 18 18 19 20 20 21 21 21 21 21 21 21 21 21 21 21 22 22 22 21 21 21 21 21 22 22 23 23
15 16 16 16 16 17 17 18 19 19 18 18 19 19 19 19 20 21 21 22 22 22 22 22 23 22 22 23 23 23 23 23 23 23 22 22 22 23 23 23 23 23 23
16 17 17 18 18 18 19 20 20 20 19 19 19 20 21 21 21 22 22 23 23 23 23 23 23 23 23 24 24 24 24 24 24 23 22 22 23 23 23 23 23 23 23
18 18 18 19 20 20 20 21 21 22 21 21 21 22 22 22 22 23 24 24 24 24 25 25 25 25 25 26 26 26 25 24 24 23 23 23 24 23 23 23 23 24 23
19 20 21 22 22 22 22 22 23 23 23 23 23 23 23 23 23 24 25 25 25 26 26 27 27 27 27 28 27 27 27 26 25 25 24 24 24 23 24 24 25 25 25
21 22 23 23 24 24 24 24 24 24 24 24 24 25 25 25 25 25 26 26 26 27 28 28 29 29 29 29 29 28 27 27 26 26 26 26 26 26 25 25 26 26 27
23 23 24 24 24 24 24 25 25 25 25 26 26 27 27 27 27 27 28 28 28 29 29 29 29 30 29 29 30 30 29 28 27 27 27 27 27 28 27 26 27 27 27

GEFSMA_500_meanwind_282.txt.gz
Wind_Speed
6 5 5 4 4 4 3 2 2 1 1 1 1 2 2 2 3 4 4 5 5 5 6 7 7 8 9 9 11 12 12 12 12 12 13 13 13 13 14 13 14 13 14
5 4 4 4 4 4 4 3 3 2 1 1 1 2 3 3 3 4 4 5 5 6 7 7 8 8 9 10 11 12 12 13 13 13 14 14 13 13 14 14 14 15 14
4 4 3 3 3 3 3 3 3 3 2 2 1 2 3 3 4 4 5 5 6 7 7 8 8 9 10 10 10 11 12 13 13 13 14 14 14 14 14 14 14 14 15
5 5 4 3 3 3 3 2 2 2 2 2 3 3 3 4 5 5 5 6 6 7 8 8 8 9 10 10 10 11 11 12 13 13 13 13 14 14 15 15 15 15 16
6 5 5 4 4 3 3 2 2 2 3 4 4 4 5 5 5 6 7 7 8 8 9 9 9 10 10 11 11 12 12 13 13 13 13 13 14 14 15 15 16 16 16
6 5 5 4 4 3 3 3 3 3 4 4 5 6 6 6 7 7 7 7 8 9 10 10 10 11 11 12 13 13 13 13 13 14 13 13 13 14 14 14 15 15 16
5 4 4 4 4 4 4 3 4 4 5 5 6 7 7 7 8 8 8 8 9 9 10 10 10 11 11 12 13 12 12 13 14 14 13 14 14 15 15 15 15 15 16
4 4 4 5 5 5 5 5 5 6 6 6 7 7 8 9 9 8 8 9 10 10 10 10 10 11 12 12 13 13 13 14 14 14 14 15 15 15 15 15 15 15 15
4 4 5 5 6 6 6 5 6 6 6 7 8 8 8 9 9 9 9 10 10 10 11 11 11 12 12 13 13 13 13 14 15 15 15 15 15 15 15 15 15 15 15
5 5 6 7 7 7 7 7 7 7 7 8 8 9 9 9 10 10 10 11 11 11 12 12 12 13 13 13 14 14 15 15 16 16 16 15 16 16 16 16 16 16 15
6 6 7 7 8 7 8 8 8 8 8 8 9 9 9 10 10 10 11 11 12 12 13 13 13 13 14 14 15 15 16 16 17 16 16 16 16 16 16 16 16 16 16
7 7 7 8 8 8 9 9 9 9 9 9 9 10 10 11 11 11 12 12 13 14 14 14 15 15 15 15 16 16 17 17 17 17 16 17 16 16 17 17 16 17 16
8 9 8 8 9 9 10 10 10 9 9 10 10 11 11 12 12 12 12 13 14 14 14 15 16 17 17 17 17 17 17 18 17 17 17 17 17 17 17 17 17 17 18
9 9 9 9 10 10 11 11 11 11 11 11 12 12 13 13 14 14 14 14 14 15 15 15 16 16 17 17 18 18 17 18 18 18 18 18 18 18 17 17 18 19 19
9 9 10 10 11 11 12 12 12 12 12 13 13 14 14 15 15 15 15 16 16 16 16 16 17 17 17 17 18 18 18 18 18 17 17 18 18 19 19 20 20 19 20
10 10 11 11 12 12 12 12 12 12 13 13 14 14 15 15 15 15 16 16 17 18 18 18 18 19 19 19 19 18 18 18 18 18 18 18 18 19 19 20 20 21 21
11 11 12 13 14 14 13 13 13 13 13 14 14 15 16 16 16 17 17 17 18 19 19 20 20 20 20 20 20 20 20 20 19 19 19 19 20 20 20 20 21 21 22
12 12 13 13 14 15 15 14 15 15 15 15 16 16 17 17 17 18 18 18 18 19 20 20 20 21 20 20 20 21 21 21 20 20 21 21 21 21 21 21 21 22 23
13 14 14 15 15 16 16 16 16 16 16 16 17 18 18 18 18 19 19 18 18 19 20 21 21 21 21 21 21 22 22 22 21 21 22 22 22 22 21 22 22 23 23
14 15 16 17 17 17 18 18 18 17 18 18 18 19 19 19 19 19 19 19 20 20 20 21 21 21 21 21 22 22 23 23 23 23 23 23 23 23 23 23 23 23 23
16 17 17 18 19 19 19 20 20 19 20 20 20 20 20 20 20 20 20 20 21 21 21 21 22 22 22 22 23 24 24 24 24 24 24 24 24 24 24 25 25 24 24
18 18 19 19 20 20 21 21 22 21 22 22 22 21 22 22 21 21 21 21 22 22 22 22 23 23 23 24 25 26 26 26 26 25 25 25 26 25 25 26 26 25 25
19 19 20 20 20 21 21 22 22 22 23 23 23 23 23 22 22 22 22 22 22 23 23 23 24 24 25 25 26 27 27 27 27 26 26 25 26 26 27 27 26 25 25
20 20 20 21 21 22 22 24 24 24 24 24 24 24 23 23 23 23 24 24 24 24 25 25 25 26 26 27 28 28 28 28 28 27 26 26 26 26 27 27 27 26 26
21 21 22 22 23 23 23 24 25 25 25 25 25 24 24 24 25 25 25 25 25 25 26 26 26 27 27 28 28 29 29 29 29 28 27 27 27 27 26 26 26 25 25
22 23 24 24 25 25 25 25 26 26 26 26 25 25 25 25 26 26 26 26 26 27 27 27 27 28 28 28 28 29 29 29 28 28 28 27 27 28 27 26 26 25 25

GEFSMA_500_meanwind_288.txt.gz
Wind_Speed
4 4 4 4 4 4 4 4 4 4 3 3 2 2 3 3 3 3 3 4 5 6 6 7 7 8 8 8 9 10 10 11 12 12 12 12 12 12 12 12 12 12 12
4 4 4 4 5 5 4 4 4 4 4 3 3 3 3 3 3 4 4 5 6 7 7 7 8 8 9 9 9 11 11 12 12 13 13 13 14 14 13 13 12 12 12
5 4 4 4 4 4 4 4 4 4 4 4 4 3 4 4 4 5 6 6 7 7 8 8 8 9 10 10 11 12 12 12 12 13 13 13 13 13 13 12 12 12 12
5 5 4 4 4 4 4 4 4 4 5 5 5 5 5 5 5 6 7 7 8 9 9 9 9 10 10 11 11 11 12 12 12 12 12 12 13 12 12 12 12 12 12
6 6 5 5 4 4 5 5 6 6 6 6 6 6 6 7 7 7 8 8 8 9 10 10 10 10 11 11 11 11 12 12 12 13 13 13 13 13 13 12 12 12 11
6 6 6 5 5 6 6 6 7 7 7 7 7 7 7 8 9 9 9 9 10 10 11 11 11 12 11 11 12 13 13 13 13 13 13 13 14 14 14 13 13 13 13
7 6 6 6 7 7 8 8 8 8 8 8 8 8 8 9 9 9 9 10 10 11 11 12 12 12 12 12 13 13 13 14 14 14 14 14 14 15 15 15 15 14 14
7 7 7 7 8 9 9 9 9 9 9 9 8 8 9 9 9 10 10 11 11 11 12 12 13 13 14 14 14 14 14 14 14 14 15 14 15 15 15 16 16 15 15
7 7 7 8 9 9 10 10 10 10 9 9 9 9 9 9 10 10 11 11 12 12 13 14 13 14 14 15 15 15 14 15 15 15 15 15 15 15 15 16 16 16 16
8 8 8 9 10 10 10 10 10 10 10 10 10 10 10 10 11 11 12 12 12 13 14 14 14 15 15 15 15 15 15 16 16 16 16 15 15 15 15 15 17 17 17
8 8 9 10 10 11 12 12 11 11 11 11 11 11 12 12 13 13 13 13 13 14 15 15 15 16 16 16 16 16 16 16 16 16 16 15 15 16 16 16 17 17 18
8 9 10 11 12 12 13 12 12 12 12 11 11 12 12 13 13 14 14 15 15 15 15 15 16 17 17 16 17 17 17 16 16 16 16 16 16 17 17 16 17 18 18
10 10 11 12 13 13 13 13 12 12 12 12 12 12 13 14 14 15 15 16 16 16 16 16 16 17 17 17 18 18 17 17 17 17 17 17 17 17 17 17 17 18 19
10 11 12 13 13 13 14 14 13 13 13 13 13 14 14 14 15 16 16 17 17 17 17 17 17 18 18 18 18 18 18 18 18 18 17 17 17 17 18 17 17 18 19
12 12 12 13 14 14 14 14 14 13 13 13 14 14 15 15 16 17 18 18 18 18 18 17 17 17 18 18 18 18 18 18 18 19 19 19 19 19 19 19 19 19 19
13 13 14 14 14 15 15 15 15 14 14 14 15 15 16 16 17 18 18 18 18 18 18 18 18 18 18 18 18 18 18 18 18 19 20 20 20 20 20 21 21 21 22
14 14 15 16 15 15 15 15 15 15 16 16 16 16 17 18 18 18 18 18 18 19 19 19 18 19 19 19 19 19 19 18 18 19 19 20 20 20 21 22 22 22 23
15 16 17 17 16 16 17 17 16 16 17 17 18 18 19 19 19 19 18 18 18 19 20 20 19 19 19 20 20 20 20 20 20 20 20 21 21 21 21 22 22 22 22
16 17 17 18 18 18 19 18 18 18 18 19 19 19 20 20 20 20 19 19 19 20 21 21 20 20 20 21 21 20 20 20 20 21 21 22 23 23 23 22 22 23 23
17 18 18 18 18 19 19 19 19 19 20 20 20 20 20 21 21 21 21 20 21 21 21 21 21 20 21 22 22 21 21 21 21 22 23 24 24 24 24 23 23 24 24
19 19 19 19 19 20 20 20 20 21 21 21 21 21 21 21 21 22 22 22 22 22 22 21 21 22 22 23 23 23 23 23 23 23 24 25 25 24 24 24 24 25 25
20 20 20 20 20 20 20 21 21 22 22 22 22 22 22 22 22 23 23 23 22 22 22 23 23 23 24 24 24 24 24 24 24 25 25 25 25 26 25 25 25 25 25
21 21 21 21 21 21 21 21 22 22 23 23 23 23 23 23 23 24 24 24 23 23 24 24 24 24 24 25 25 25 26 26 26 27 28 28 27 27 27 26 25 25 25
22 23 23 22 22 22 22 23 23 23 24 24 24 24 24 24 24 24 24 24 25 25 24 25 25 25 26 26 27 27 26 27 27 28 29 28 28 28 27 26 26 26 26
23 24 23 24 24 23 23 23 24 24 25 25 25 25 25 25 25 26 26 26 25 25 26 26 25 26 27 27 28 28 28 28 28 28 29 29 29 28 27 26 26 26 26
24 25 24 25 25 24 24 24 25 25 26 27 27 27 27 27 27 26 27 27 27 27 27 26 26 27 28 28 29 29 29 29 29 29 30 30 29 28 27 26 26 25 25

GEFSMA_500_meanwind_294.txt.gz
Wind_Speed
6 6 6 5 5 4 4 5 5 5 4 3 3 3 2 2 2 1 2 2 3 4 4 5 5 6 6 6 7 8 8 9 9 10 10 10 11 11 11 11 12 13 13
6 6 7 6 5 5 5 5 5 5 5 4 3 2 3 2 2 2 3 3 4 5 5 6 7 7 7 8 8 8 9 10 11 11 11 11 11 11 12 12 12 13 13
7 6 6 6 6 5 5 5 5 5 4 3 3 3 3 3 4 4 4 5 6 6 7 7 8 8 8 9 9 10 10 10 11 11 12 13 12 12 12 12 12 12 13
7 6 6 6 6 5 5 6 5 5 4 4 4 4 4 4 5 5 5 6 6 7 7 7 8 8 8 9 9 10 11 11 11 10 11 12 12 13 13 13 13 12 13
7 6 5 5 5 5 5 5 5 5 5 4 4 5 5 5 5 5 6 6 6 7 7 8 8 8 8 9 10 11 11 11 11 11 11 12 12 13 13 13 13 13 13
5 5 4 5 5 5 5 5 5 5 6 5 5 6 6 6 6 6 6 6 6 7 7 8 8 9 9 10 10 11 12 12 11 12 12 12 12 12 13 14 14 14 14
5 5 5 6 6 6 6 6 6 6 7 6 6 6 7 7 6 6 6 7 7 7 8 9 9 10 10 11 11 11 12 12 12 12 12 12 12 13 13 14 14 15 14
5 5 5 5 6 6 7 7 7 7 7 7 7 8 7 7 7 7 7 7 8 8 9 9 10 10 11 12 12 12 12 12 12 12 12 13 13 13 13 14 15 15 15
6 6 6 6 6 7 7 8 8 8 8 8 8 8 7 7 7 7 8 8 8 9 10 11 11 11 11 12 13 13 13 12 13 13 13 14 14 13 13 14 15 16 16
7 8 8 7 7 8 8 8 8 8 8 8 8 8 8 8 7 7 8 9 10 11 11 12 12 13 13 13 13 13 14 15 15 15 14 15 15 15 15 15 16 16 16
8 9 9 8 8 8 9 9 8 9 8 8 8 8 9 9 9 9 9 10 11 12 12 13 14 14 14 14 14 14 15 15 15 15 15 15 15 16 16 16 17 17 18
8 8 9 8 9 9 9 10 10 10 9 9 9 9 9 9 9 9 10 10 11 12 13 13 14 14 15 15 15 15 15 15 16 16 15 15 16 16 16 16 17 18 19
8 8 9 9 9 9 10 10 10 11 10 10 10 10 10 10 10 11 11 11 12 13 13 14 15 15 14 15 15 14 15 15 15 15 16 16 16 17 17 17 18 19 19
8 9 9 10 10 10 11 11 11 11 11 11 11 10 10 10 11 12 12 13 13 13 14 14 15 15 14 15 14 15 15 15 16 16 16 17 17 17 17 18 19 19 20
9 10 10 11 12 12 12 12 12 12 12 12 12 12 12 12 12 12 13 13 14 14 14 15 15 15 16 16 15 16 16 16 17 17 17 17 18 17 18 19 19 20 21
10 11 11 12 13 13 13 13 13 12 12 12 12 12 13 13 14 14 14 14 15 15 15 16 16 17 16 16 16 16 16 17 17 17 18 18 18 19 19 19 20 21 21
12 13 13 14 14 14 14 14 14 14 14 14 14 14 14 15 15 15 16 16 17 17 17 17 18 18 17 17 17 17 17 17 18 18 18 19 20 20 21 21 21 21 22
13 14 15 15 15 15 15 14 15 15 15 15 15 15 16 16 16 16 17 18 18 18 18 19 19 19 18 18 17 18 18 19 19 20 20 20 21 21 22 22 22 22 22
14 14 15 15 15 16 16 15 16 16 16 16 16 17 17 17 18 18 19 19 20 20 20 20 20 20 20 19 19 19 19 20 21 21 22 22 23 23 23 23 23 23 23
15 15 16 16 16 16 16 17 17 17 17 17 18 18 18 19 20 20 20 21 21 21 21 21 20 21 20 20 20 20 20 21 22 22 23 24 24 24 24 24 24 24 24
16 16 16 17 17 17 17 18 18 18 18 19 19 19 20 20 21 21 22 22 22 22 22 22 21 21 21 21 21 21 22 22 23 23 24 24 24 24 25 25 25 25 25
17 17 17 17 18 18 18 19 19 20 19 20 20 21 21 22 22 22 23 22 23 23 23 23 23 22 22 22 22 23 22 23 23 24 24 24 25 25 25 26 26 26 26
18 19 18 18 19 19 20 20 21 20 21 21 22 22 23 23 23 23 23 23 23 23 24 24 24 23 23 23 23 23 23 23 23 24 24 24 24 25 25 25 26 26 26
20 20 19 20 20 21 21 22 22 22 23 23 24 24 24 25 24 24 24 24 24 24 25 25 25 25 24 24 24 24 24 24 25 25 25 25 25 26 26 26 27 26 27
21 21 21 22 22 23 23 24 24 24 25 24 25 25 25 25 25 25 25 25 25 25 25 26 26 26 25 25 25 25 26 26 26 25 26 25 25 26 27 27 26 26 26
23 22 23 24 24 24 24 25 25 26 26 25 26 25 25 25 26 26 26 26 26 26 26 26 26 26 26 26 27 27 26 26 26 26 27 26 26 27 26 26 25 25 26